Wetterdaten: aktuell Sonntag, 19.05.2024 01:20
Datum Zeit Temp. A. Feuchte A. Luftdruck Regen Wind Richtung Richtung Sonnenschein Solar Windböen
19.05.2024 01:20 13,4 °C 85 % 1009,7 hPa 0,0 l/m² 0,4 km/h (0 Bft) N 360 ° 0 min 0 W/m² 3,2 km/h (1 Bft)
19.05.2024 01:15 13,6 °C 85 % 1009,7 hPa 0,0 l/m² 0,0 km/h (0 Bft) N 360 ° 0 min 0 W/m² 1,6 km/h (1 Bft)
19.05.2024 01:10 13,7 °C 84 % 1009,7 hPa 0,0 l/m² 0,0 km/h (0 Bft) N 360 ° 0 min 0 W/m² 0,0 km/h (0 Bft)
19.05.2024 01:05 13,8 °C 84 % 1009,7 hPa 0,0 l/m² 0,0 km/h (0 Bft) N 360 ° 0 min 0 W/m² 0,0 km/h (0 Bft)
19.05.2024 01:00 13,8 °C 84 % 1009,8 hPa 0,0 l/m² 0,2 km/h (0 Bft) N 360 ° 0 min 0 W/m² 1,6 km/h (1 Bft)
19.05.2024 00:55 13,9 °C 84 % 1009,8 hPa 0,0 l/m² 0,0 km/h (0 Bft) N 360 ° 0 min 0 W/m² 1,6 km/h (1 Bft)
19.05.2024 00:50 14,0 °C 84 % 1009,8 hPa 0,0 l/m² 0,0 km/h (0 Bft) N 360 ° 0 min 0 W/m² 0,0 km/h (0 Bft)
19.05.2024 00:45 14,1 °C 84 % 1009,9 hPa 0,0 l/m² 0,0 km/h (0 Bft) N 360 ° 0 min 0 W/m² 0,0 km/h (0 Bft)
19.05.2024 00:40 14,2 °C 84 % 1010,0 hPa 0,0 l/m² 0,0 km/h (0 Bft) N 360 ° 0 min 0 W/m² 0,0 km/h (0 Bft)
19.05.2024 00:35 14,3 °C 84 % 1010,0 hPa 0,0 l/m² 0,0 km/h (0 Bft) N 360 ° 0 min 0 W/m² 0,0 km/h (0 Bft)
19.05.2024 00:30 14,3 °C 84 % 1010,0 hPa 0,0 l/m² 0,0 km/h (0 Bft) N 360 ° 0 min 0 W/m² 0,0 km/h (0 Bft)
19.05.2024 00:25 14,4 °C 84 % 1009,9 hPa 0,0 l/m² 0,0 km/h (0 Bft) N 360 ° 0 min 0 W/m² 0,0 km/h (0 Bft)
19.05.2024 00:20 14,6 °C 84 % 1009,9 hPa 0,0 l/m² 0,0 km/h (0 Bft) N 360 ° 0 min 0 W/m² 0,0 km/h (0 Bft)
19.05.2024 00:15 14,7 °C 84 % 1010,0 hPa 0,0 l/m² 0,0 km/h (0 Bft) N 360 ° 0 min 0 W/m² 0,0 km/h (0 Bft)
19.05.2024 00:10 14,7 °C 84 % 1010,0 hPa 0,0 l/m² 0,0 km/h (0 Bft) N 360 ° 0 min 0 W/m² 0,0 km/h (0 Bft)
19.05.2024 00:05 14,8 °C 84 % 1010,0 hPa 0,0 l/m² 0,0 km/h (0 Bft) N 360 ° 0 min 0 W/m² 0,0 km/h (0 Bft)
19.05.2024 00:00 14,9 °C 84 % 1010,0 hPa 0,0 l/m² 0,0 km/h (0 Bft) N 360 ° 0 min 0 W/m² 0,0 km/h (0 Bft)
18.05.2024 23:55 14,9 °C 84 % 1010,0 hPa 0,0 l/m² 0,0 km/h (0 Bft) N 360 ° 0 min 0 W/m² 0,0 km/h (0 Bft)
18.05.2024 23:50 15,0 °C 85 % 1010,0 hPa 0,0 l/m² 0,0 km/h (0 Bft) N 360 ° 0 min 0 W/m² 0,0 km/h (0 Bft)
18.05.2024 23:45 15,0 °C 85 % 1010,0 hPa 0,0 l/m² 0,0 km/h (0 Bft) N 360 ° 0 min 0 W/m² 0,0 km/h (0 Bft)
18.05.2024 23:40 15,1 °C 85 % 1010,0 hPa 0,0 l/m² 1,1 km/h (1 Bft) N 360 ° 0 min 0 W/m² 3,2 km/h (1 Bft)
18.05.2024 23:35 15,1 °C 85 % 1010,0 hPa 0,0 l/m² 1,3 km/h (1 Bft) N 360 ° 0 min 0 W/m² 3,2 km/h (1 Bft)
18.05.2024 23:30 15,1 °C 85 % 1010,1 hPa 0,0 l/m² 2,5 km/h (1 Bft) N 360 ° 0 min 0 W/m² 4,8 km/h (1 Bft)
18.05.2024 23:25 14,9 °C 85 % 1010,1 hPa 0,0 l/m² 1,7 km/h (1 Bft) N 360 ° 0 min 0 W/m² 4,8 km/h (1 Bft)
18.05.2024 23:20 14,9 °C 85 % 1010,1 hPa 0,0 l/m² 1,2 km/h (1 Bft) N 360 ° 0 min 0 W/m² 4,8 km/h (1 Bft)
18.05.2024 23:15 14,9 °C 85 % 1010,1 hPa 0,0 l/m² 2,5 km/h (1 Bft) N 360 ° 0 min 0 W/m² 8,0 km/h (2 Bft)
18.05.2024 23:10 14,9 °C 85 % 1010,1 hPa 0,0 l/m² 3,1 km/h (1 Bft) N 360 ° 0 min 0 W/m² 8,0 km/h (2 Bft)
18.05.2024 23:05 14,8 °C 84 % 1010,0 hPa 0,0 l/m² 1,9 km/h (1 Bft) N 360 ° 0 min 0 W/m² 3,2 km/h (1 Bft)
18.05.2024 23:00 14,7 °C 83 % 1010,0 hPa 0,0 l/m² 0,6 km/h (0 Bft) N 360 ° 0 min 0 W/m² 3,2 km/h (1 Bft)
18.05.2024 22:55 14,8 °C 83 % 1009,9 hPa 0,0 l/m² 0,1 km/h (0 Bft) N 360 ° 0 min 0 W/m² 1,6 km/h (1 Bft)
18.05.2024 22:50 14,8 °C 83 % 1009,9 hPa 0,0 l/m² 0,1 km/h (0 Bft) N 360 ° 0 min 0 W/m² 1,6 km/h (1 Bft)
18.05.2024 22:45 14,8 °C 83 % 1009,9 hPa 0,0 l/m² 0,0 km/h (0 Bft) N 360 ° 0 min 0 W/m² 0,0 km/h (0 Bft)
18.05.2024 22:40 14,9 °C 83 % 1009,9 hPa 0,0 l/m² 0,0 km/h (0 Bft) N 360 ° 0 min 0 W/m² 0,0 km/h (0 Bft)
18.05.2024 22:35 14,9 °C 83 % 1009,9 hPa 0,0 l/m² 0,0 km/h (0 Bft) N 360 ° 0 min 0 W/m² 0,0 km/h (0 Bft)
18.05.2024 22:30 14,9 °C 83 % 1009,9 hPa 0,0 l/m² 0,0 km/h (0 Bft) N 360 ° 0 min 0 W/m² 0,0 km/h (0 Bft)
18.05.2024 22:25 15,0 °C 83 % 1009,8 hPa 0,0 l/m² 0,0 km/h (0 Bft) N 360 ° 0 min 0 W/m² 0,0 km/h (0 Bft)
18.05.2024 22:20 15,1 °C 83 % 1009,8 hPa 0,0 l/m² 0,1 km/h (0 Bft) N 360 ° 0 min 0 W/m² 3,2 km/h (1 Bft)
18.05.2024 22:15 15,1 °C 83 % 1009,8 hPa 0,0 l/m² 0,0 km/h (0 Bft) N 360 ° 0 min 0 W/m² 0,0 km/h (0 Bft)
18.05.2024 22:10 15,1 °C 82 % 1009,9 hPa 0,0 l/m² 0,6 km/h (0 Bft) N 360 ° 0 min 0 W/m² 3,2 km/h (1 Bft)
18.05.2024 22:05 15,1 °C 82 % 1009,8 hPa 0,0 l/m² 0,3 km/h (0 Bft) N 360 ° 0 min 0 W/m² 1,6 km/h (1 Bft)
18.05.2024 22:00 15,2 °C 81 % 1009,8 hPa 0,0 l/m² 0,4 km/h (0 Bft) N 360 ° 0 min 0 W/m² 3,2 km/h (1 Bft)
18.05.2024 21:55 15,2 °C 81 % 1009,8 hPa 0,0 l/m² 0,4 km/h (0 Bft) N 360 ° 0 min 0 W/m² 3,2 km/h (1 Bft)
18.05.2024 21:50 15,3 °C 80 % 1009,8 hPa 0,0 l/m² 0,0 km/h (0 Bft) N 360 ° 0 min 0 W/m² 1,6 km/h (1 Bft)
18.05.2024 21:45 15,4 °C 80 % 1009,6 hPa 0,0 l/m² 0,6 km/h (0 Bft) N 360 ° 0 min 0 W/m² 3,2 km/h (1 Bft)
18.05.2024 21:40 15,4 °C 79 % 1009,6 hPa 0,0 l/m² 0,0 km/h (0 Bft) N 360 ° 0 min 0 W/m² 1,6 km/h (1 Bft)
18.05.2024 21:35 15,6 °C 79 % 1009,6 hPa 0,0 l/m² 0,0 km/h (0 Bft) N 360 ° 0 min 0 W/m² 0,0 km/h (0 Bft)
18.05.2024 21:30 15,7 °C 78 % 1009,5 hPa 0,0 l/m² 0,0 km/h (0 Bft) N 360 ° 0 min 0 W/m² 0,0 km/h (0 Bft)
18.05.2024 21:25 15,8 °C 78 % 1009,4 hPa 0,0 l/m² 0,0 km/h (0 Bft) N 360 ° 0 min 0 W/m² 0,0 km/h (0 Bft)
18.05.2024 21:20 15,9 °C 78 % 1009,4 hPa 0,0 l/m² 0,0 km/h (0 Bft) N 360 ° 0 min 0 W/m² 0,0 km/h (0 Bft)
18.05.2024 21:15 16,1 °C 77 % 1009,4 hPa 0,0 l/m² 0,0 km/h (0 Bft) N 360 ° 0 min 0 W/m² 0,0 km/h (0 Bft)
18.05.2024 21:10 16,2 °C 77 % 1009,4 hPa 0,0 l/m² 0,0 km/h (0 Bft) N 360 ° 0 min 5 W/m² 0,0 km/h (0 Bft)
18.05.2024 21:05 16,3 °C 77 % 1009,3 hPa 0,0 l/m² 0,0 km/h (0 Bft) N 360 ° 0 min 7 W/m² 0,0 km/h (0 Bft)
18.05.2024 21:00 16,4 °C 77 % 1009,3 hPa 0,0 l/m² 0,0 km/h (0 Bft) N 360 ° 0 min 9 W/m² 1,6 km/h (1 Bft)
18.05.2024 20:55 16,5 °C 77 % 1009,2 hPa 0,0 l/m² 0,0 km/h (0 Bft) N 360 ° 0 min 11 W/m² 0,0 km/h (0 Bft)
18.05.2024 20:50 16,6 °C 77 % 1009,2 hPa 0,0 l/m² 0,0 km/h (0 Bft) N 360 ° 0 min 12 W/m² 0,0 km/h (0 Bft)
18.05.2024 20:45 16,7 °C 77 % 1009,2 hPa 0,0 l/m² 0,0 km/h (0 Bft) N 360 ° 0 min 12 W/m² 0,0 km/h (0 Bft)
18.05.2024 20:40 16,8 °C 77 % 1009,2 hPa 0,0 l/m² 0,0 km/h (0 Bft) N 360 ° 0 min 14 W/m² 0,0 km/h (0 Bft)
18.05.2024 20:35 16,8 °C 77 % 1009,1 hPa 0,0 l/m² 0,0 km/h (0 Bft) N 360 ° 0 min 16 W/m² 0,0 km/h (0 Bft)
18.05.2024 20:30 16,8 °C 77 % 1009,1 hPa 0,0 l/m² 0,0 km/h (0 Bft) N 360 ° 0 min 23 W/m² 0,0 km/h (0 Bft)
18.05.2024 20:25 16,8 °C 77 % 1009,1 hPa 0,0 l/m² 0,0 km/h (0 Bft) N 360 ° 0 min 26 W/m² 0,0 km/h (0 Bft)
18.05.2024 20:20 16,8 °C 77 % 1009,1 hPa 0,0 l/m² 0,0 km/h (0 Bft) N 360 ° 0 min 32 W/m² 0,0 km/h (0 Bft)
_ Min-Zeit 04:50 10:45 03:45 - 02:00 - - - - 02:00
Minimum _ 11,8 °C 53 % 1009,1 hPa - 0,0 km/h (0 Bft) - - - - 0,0 km/h (0 Bft)
_ Max-Zeit 16:55 23:10 08:35 02:00 10:35 - - 09:00 13:45 11:35
Maximum _ 22,3 °C 85 % 1010,4 hPa 0,0 l/m² 12,0 km/h
O (2 Bft)
- - 5 min 1081 W/m² 22,5 km/h
N (4 Bft)
Durchschnitt _ 16,4 °C 71 % 1009,7 hPa #0,0 l/m² 2,3 km/h (1 Bft) N - #0 min. 0 W/m² 5,4 km/h (1 Bft)